Regional Weather Roundup
Issued by NWS

Current Version | Previous Version | Text Only | Print | Product List | Glossary On
Versions: 1 2 3 4 5 6 7 8 9 10 11 12 13 14 15 16 17 18 19 20 21 22 23 24 25 26 27 28 29 30 31 32 33 34 35 36 37 38 39 40 41 42 43 44 45 46 47 48 49 50
000
ASUS42 KTBW 240316
RWRFL
FLORIDA REGIONAL WEATHER ROUNDUP
NATIONAL WEATHER SERVICE TAMPA BAY RUSKIN FL
1100 PM EDT SAT MAY 23 2015

NOTE: "FAIR" INDICATES FEW OR NO CLOUDS BELOW 12,000 FEET WITH NO
SIGNIFICANT WEATHER AND/OR OBSTRUCTIONS TO VISIBILITY.


FLZ001>010-012>015-112-114-115-240400-
PANHANDLE FLORIDA

CITY           SKY/WX    TMP DP  RH WIND       PRES   REMARKS
PENSACOLA      CLEAR     77  71  82 SE6       30.17S
PENSACOLA NAS  CLEAR     78  71  79 SE10      30.17R
CRESTVIEW      CLEAR     72  67  84 CALM      30.21R
TRI COUNTY     FAIR      70  65  84 CALM      30.21R
PANAMA CITY    FAIR      75  71  87 CALM      30.19R
TYNDALL AFB    CLEAR     73  68  83 SE2       30.18R
APALACHICOLA   PTCLDY    77  67  71 CALM      30.18R

STATION/POSITION SKY/WX   TEMP    WIND        PRES    WAVE   SWELL
                          AIR SEA DIR/SP/G            HT/PER HT/PER
                          (F)     (DEG/KT/KT) (MB)    (FT/S) (FT/S)
30.1N   87.6W              79 80  110/ 12/ 14 1020.5R   2/ 5
29.2N   88.2W              80 80  110/ 17/ 19 1020.7R   3/ 5
28.8N   86.0W              79 81  100/ 14/ 16 1021.5R   3/ 6
PANAMA CITY BEAC           80 80  140/  4/  5 1021.8R
CAPE SAN BLAS    NOT AVBL
TOWER C                    80      70/  6/  6 1021.9R
28.5N   84.5W              80 80   60/ 10/ 12 1021.6R   2/ 4

$$
FLZ011-016>038-118-127-128-134-139-239-240400-
NORTH FLORIDA

CITY           SKY/WX    TMP DP  RH WIND       PRES   REMARKS
MARIANNA       PTCLDY    76  63  64 E3        30.20R
TALLAHASSEE    CLEAR     81  65  58 E13       30.21R
PERRY          CLEAR     77  67  72 NE6       30.23R
CROSS CITY       N/A     78  68  71 E6        30.22R
LAKE CITY      FAIR      72  70  94 E5        30.25S
GAINESVILLE    CLOUDY    76  70  82 E10       30.25R
MAYPORT NAS    CLEAR     76  68  76 E17       30.26R
JACKSONVILLE   CLEAR     73  68  84 E9        30.26R
JAX NAS        PTCLDY    79  68  69 E13       30.26R
JAX CRAIG      CLEAR     76  67  73 E13G21    30.26S
JAX CECIL      CLEAR     75  68  78 E7        30.26R
FERNANDINA BEA FAIR      81  70  69 E10G16    30.26S
ST AUGUSTINE   CLEAR     77  70  79 E18       30.26S

STATION/POSITION SKY/WX   TEMP    WIND        PRES    WAVE   SWELL
                          AIR SEA DIR/SP/G            HT/PER HT/PER
                          (F)     (DEG/KT/KT) (MB)    (FT/S) (FT/S)
SHELL POINT                83      70/  6/ 14   N/A
KEATON BEACH               77      70/ 12/ 15 1023.2R
CEDAR KEY                  79      80/ 16/ 18 1023.4R
FERNANDINA                 76 80  100/  7/ 13 1024.2F
30.7N   81.3W                 78                N/A     4/ 6
MAYPORT                    77 78  100/ 13/ 17 1024.7F
31.4N   80.9W              75 75  100/ 12/ 14 1026.1R   5/ 6   3/ 6
ST AUGUSTINE               76 76   90/ 17/ 19 1025.4R

$$
FLZ040-043>046-052-053-057-058-063-144-240400-
INTERIOR CENTRAL FLORIDA

CITY           SKY/WX    TMP DP  RH WIND       PRES   REMARKS
OCALA          PTCLDY    77  68  73 NE7       30.24R
THE VILLAGES     N/A     77  73  88 NE7       30.14R
LEESBURG       CLEAR     78  71  79 E8        30.23R
SANFORD        MOCLDY    78  71  79 E9        30.23R
ORLANDO EXEC   CLEAR     78  71  79 E13       30.22R
ORLANDO INTL   PTCLDY    78  73  84 E12       30.23R
WINTER HAVEN   CLEAR     79  72  79 E10       30.22R
LAKELAND       CLEAR     79  70  73 E10       30.21R
BARTOW         FAIR      77  72  83 NE10      30.22R
OKEECHOBEE     CLEAR     73  72  94 NE3       30.20R

$$
FLZ041-047-054-059-064-141-147-240400-
EAST CENTRAL FLORIDA

CITY           SKY/WX    TMP DP  RH WIND       PRES   REMARKS
DAYTONA BEACH  MOCLDY    77  70  79 E12       30.25R
DELAND           N/A     73  73 100 NE3       30.25S
JFK SPACE CTR  PTCLDY    78  71  77 E12G17    30.22R
CAPE CANAVERAL CLEAR     79  72  78 E8G18     30.21R
MELBOURNE      PTCLDY    79  72  79 E17       30.21R
VERO BEACH     PTCLDY    81  72  74 E13       30.21R
FT PIERCE      PTCLDY    80  73  79 E9        30.20R
STUART         PTCLDY    79  72  78 E12       30.20S

STATION/POSITION SKY/WX   TEMP    WIND        PRES    WAVE   SWELL
                          AIR SEA DIR/SP/G            HT/PER HT/PER
                          (F)     (DEG/KT/KT) (MB)    (FT/S) (FT/S)
28.5N   80.2W              80 80   70/ 17/ 21 1023.2R
28.9N   78.5W              78 80   60/ 19/ 23 1023.9R
TRIDENT PIER               79 83   60/ 13/ 18 1023.6R
28.4N   80.5W                 81                N/A     4/ 4
27.5N   80.2W                 82                N/A     3/ 4

$$
FLZ050-056-061-142-242-148-248-149-249-151-251-155-255-
160-260-240400-
WEST CENTRAL FLORIDA

CITY           SKY/WX    TMP DP  RH WIND       PRES   REMARKS
CRYSTAL RIVER  FAIR      79  70  73 E8        30.22R
INVERNESS      FAIR      79  70  73 E3        30.23R
BROOKSVILLE    CLEAR     77  68  73 E8        30.22R
CLEARWATER     CLEAR     78  70  76 E12       30.19R
TAMPA INTL     PTCLDY    80  67  64 E3        30.20R
TAMPA EXEC     CLEAR     79  70  73 E6        30.20R
PLANT CITY     CLEAR     81  73  78 E8        30.22R
PETER O KNIGHT CLEAR     82  70  65 E9        30.19R
ST PETERSBURG  CLEAR     82  69  64 SE16      30.18R
SARASOTA       PTCLDY    78  70  76 E10       30.17R
VENICE         FAIR      77  72  83 E7        30.19R

STATION/POSITION SKY/WX   TEMP    WIND        PRES    WAVE   SWELL
                          AIR SEA DIR/SP/G            HT/PER HT/PER
                          (F)     (DEG/KT/KT) (MB)    (FT/S) (FT/S)
CEDAR KEY                  79      80/ 16/ 18 1023.4R
28.5N   84.5W              80 80   60/ 10/ 12 1021.6R   2/ 4
27.3N   84.2W                 82                N/A     2/ 4
CLEARWATER BEACH           80 85   80/  5/  8 1021.7R
MIDDLE TAMPA BAY           83     110/ 13/ 16 1021.7R
VENICE                     79 85   60/  4/  6 1021.7R

$$
FLZ066-069-070-075>078-162-262-165-265-240400-
SOUTHWEST FLORIDA AND KEYS

CITY           SKY/WX    TMP DP  RH WIND       PRES   REMARKS
PUNTA GORDA    MOCLDY    77  73  87 E9        30.20R
FT MYERS       CLOUDY    77  73  87 E5        30.17R
SOUTHWEST INTL CLOUDY    77  72  84 E7        30.17R
NAPLES         PTCLDY    77  71  82 E7        30.16R
MARCO ISLAND     N/A     73  70  88 NE6       30.16R
IMMOKALEE      PTCLDY   N/A N/A N/A CALM      30.18S
MARATHON       CLEAR     83  72  69 E13G23    30.14R
KEY WEST NAS   PTCLDY    83  71  67 E20G29    30.13R
KEY WEST INTL  PTCLDY    82  74  76 E20G26    30.14R

STATION/POSITION SKY/WX   TEMP    WIND        PRES    WAVE   SWELL
                          AIR SEA DIR/SP/G            HT/PER HT/PER
                          (F)     (DEG/KT/KT) (MB)    (FT/S) (FT/S)
VENICE                     79 85   60/  4/  6 1021.7R
NAPLES                     77 85   80/  4/  6 1020.9R
26.0N   85.6W              81 82   80/ 14/ 16 1020.0R   2/ 3
DRY TORTUGAS               83      90/ 17/ 19 1019.3R
NW FL BAY                  83      80/ 15/ 20 1020.6
SAND KEY                   82      90/ 22/ 25 1020.1R
SOMBRERO KEY               82      90/ 23/ 23 1020.7R
LONG KEY                   83 87   80/ 18/ 21 1021.6R
MOLASSES REEF              81 83  100/ 19/ 21 1020.9R

$$
FLZ067-068-071>074-168-172>174-240400-
SOUTHEAST FLORIDA

CITY           SKY/WX    TMP DP  RH WIND       PRES   REMARKS
W PALM BEACH   PTCLDY    80  75  84 E9        30.19R
FT LAUDER-EXEC PTCLDY    81  73  76 E14       30.17S
FT LAUDERDALE  PTCLDY    81  74  79 E14       30.17R
POMPANO BEACH  CLEAR     81  73  76 E10       30.17S
PEMBROKE PINES PTCLDY    81  72  74 E9        30.18S
OPA LOCKA      PTCLDY    81  72  74 E13       30.17S
MIAMI          PTCLDY    81  70  69 E15       30.17R
WEST KENDALL   PTCLDY    80  72  76 E12       30.17R
HOMESTEAD      PTCLDY    81  72  73 E14       30.16R

STATION/POSITION SKY/WX   TEMP    WIND        PRES    WAVE   SWELL
                          AIR SEA DIR/SP/G            HT/PER HT/PER
                          (F)     (DEG/KT/KT) (MB)    (FT/S) (FT/S)
PORT EVERGLADES            81      80/  9/ 13 1021.6R
VIRGINIA KEY               82 86   80/ 13/ 17 1020.9R
LAKE WORTH                 81 83  100/ 12/ 15 1021.5R
SETTLEMENT POINT           81     110/ 14/ 17 1023.0R

$$



USA.gov is the U.S. government's official web portal to all federal, state and local government web resources and services.